| time (UTC) | temp F | wind direction | speed knots | gust knots | rain 1hr in | rain 24hr in | rain mn in | humidity % | barometer mb |
| 20260505230524 | 77 | 173 | 7.8 | 12.2 | 0.00 | 0.01 | 0.01 | 46 | 1010.5 |
| 20260505225530 | 77 | 186 | 5.2 | 7.8 | 0.00 | 0.01 | 0.01 | 47 | 1010.4 |
| 20260505224516 | 78 | 176 | 6.1 | 11.3 | 0.00 | 0.01 | 0.01 | 46 | 1010.5 |
| 20260505223541 | 78 | 225 | 5.2 | 6.1 | 0.00 | 0.01 | 0.01 | 43 | 1010.5 |
| 20260505222525 | 79 | 183 | 6.1 | 9.6 | 0.00 | 0.01 | 0.01 | 42 | 1010.4 |
| 20260505221529 | 79 | 218 | 7.8 | 13.0 | 0.00 | 0.01 | 0.01 | 41 | 1010.4 |
| 20260505220518 | 80 | 208 | 7.0 | 12.2 | 0.00 | 0.01 | 0.01 | 41 | 1010.5 |
| 20260505215521 | 80 | 177 | 6.1 | 8.7 | 0.00 | 0.01 | 0.01 | 41 | 1010.4 |
| 20260505214526 | 81 | 197 | 7.8 | 12.2 | 0.00 | 0.01 | 0.01 | 41 | 1010.4 |
| 20260505213531 | 82 | 177 | 7.0 | 13.0 | 0.00 | 0.01 | 0.01 | 42 | 1010.4 |
| 20260505212518 | 82 | 212 | 7.8 | 15.6 | 0.00 | 0.01 | 0.01 | 43 | 1010.4 |
| 20260505211523 | 82 | 158 | 7.8 | 13.0 | 0.00 | 0.01 | 0.01 | 43 | 1010.4 |
| 20260505210527 | 83 | 215 | 6.1 | 11.3 | 0.00 | 0.01 | 0.01 | 43 | 1010.3 |
| 20260505205532 | 83 | 166 | 7.0 | 10.4 | 0.00 | 0.01 | 0.01 | 43 | 1010.5 |
| 20260505204520 | 83 | 215 | 5.2 | 8.7 | 0.00 | 0.01 | 0.01 | 44 | 1010.5 |
| 20260505203524 | 83 | 270 | 7.8 | 7.8 | 0.00 | 0.01 | 0.01 | 45 | 1010.5 |
| 20260505202528 | 82 | 197 | 6.1 | 10.4 | 0.00 | 0.01 | 0.01 | 45 | 1010.6 |
| 20260505201015 | 82 | 192 | 7.8 | 14.8 | 0.00 | 0.01 | 0.01 | 46 | 1010.8 |
| 20260505200020 | 83 | 162 | 7.0 | 11.3 | 0.00 | 0.01 | 0.01 | 46 | 1010.9 |
| 20260505195025 | 82 | 190 | 9.6 | 12.2 | 0.00 | 0.01 | 0.01 | 47 | 1011.0 |
| 20260505194030 | 81 | 189 | 7.8 | 12.2 | 0.00 | 0.01 | 0.01 | 48 | 1011.0 |
| 20260505193016 | 82 | 203 | 7.8 | 13.0 | 0.00 | 0.01 | 0.01 | 48 | 1011.3 |
| 20260505192021 | 82 | 177 | 6.1 | 10.4 | 0.00 | 0.01 | 0.01 | 47 | 1011.3 |
| 20260505191047 | 81 | 176 | 6.1 | 10.4 | 0.00 | 0.01 | 0.01 | 47 | 1011.5 |
| 20260505190030 | 82 | 178 | 7.0 | 10.4 | 0.00 | 0.01 | 0.01 | 47 | 1011.5 |
| 20260505185022 | 82 | 206 | 8.7 | 13.9 | 0.00 | 0.01 | 0.01 | 47 | 1011.6 |
| 20260505184022 | 81 | 189 | 6.1 | 9.6 | 0.00 | 0.01 | 0.01 | 49 | 1011.6 |
| 20260505183028 | 83 | 232 | 7.8 | 13.0 | 0.00 | 0.01 | 0.01 | 47 | 1011.7 |
| 20260505182031 | 83 | 224 | 6.1 | 8.7 | 0.00 | 0.01 | 0.01 | 47 | 1011.9 |
| 20260505181039 | 83 | 235 | 7.0 | 11.3 | 0.00 | 0.01 | 0.01 | 47 | 1012.1 |
| 20260505180023 | 81 | 234 | 7.8 | 13.9 | 0.00 | 0.01 | 0.01 | 47 | 1012.0 |
| 20260505175027 | 82 | 225 | 6.1 | 8.7 | 0.00 | 0.01 | 0.01 | 47 | 1012.1 |
| 20260505174026 | 83 | 233 | 6.1 | 12.2 | 0.00 | 0.01 | 0.01 | 48 | 1012.1 |
| 20260505173039 | 80 | 199 | 7.8 | 13.0 | 0.00 | 0.01 | 0.01 | 47 | 1012.1 |
| 20260505172024 | 82 | 211 | 5.2 | 7.8 | 0.00 | 0.01 | 0.01 | 48 | 1012.2 |
| 20260505171044 | 82 | 270 | 9.6 | 13.0 | 0.00 | 0.01 | 0.01 | 48 | 1012.4 |
| 20260505170016 | 82 | 199 | 7.8 | 11.3 | 0.00 | 0.01 | 0.01 | 47 | 1012.7 |
| 20260505165041 | 81 | 220 | 7.0 | 9.6 | 0.00 | 0.01 | 0.01 | 48 | 1012.9 |
| 20260505164019 | 81 | 218 | 7.0 | 11.3 | 0.00 | 0.01 | 0.01 | 49 | 1013.0 |
| 20260505163038 | 80 | 231 | 8.7 | 13.9 | 0.00 | 0.01 | 0.01 | 49 | 1013.2 |
| 20260505162017 | 80 | 248 | 9.6 | 13.9 | 0.00 | 0.01 | 0.01 | 50 | 1013.2 |
| 20260505161015 | 80 | 247 | 9.6 | 13.9 | 0.00 | 0.01 | 0.01 | 50 | 1013.3 |
| 20260505153024 | 78 | 226 | 7.8 | 10.4 | 0.01 | 0.01 | 0.01 | 55 | 1013.5 |
| 20260505152027 | 0 | 113 | 6.1 | 6.1 | 0.01 | 0.01 | 0.01 | 1013.7 | |
| 20260505151032 | 77 | 235 | 7.8 | 12.2 | 0.01 | 0.01 | 0.01 | 56 | 1013.5 |
| 20260505125028 | 70 | 209 | 7.0 | 8.7 | 0.00 | 0.00 | 0.00 | 60 | 1013.9 |
| 20260505124033 | 70 | 211 | 5.2 | 10.4 | 0.00 | 0.00 | 0.00 | 61 | 1013.9 |
| 20260505123019 | 69 | 198 | 4.3 | 7.0 | 0.00 | 0.00 | 0.00 | 63 | 1013.9 |
| 20260505122025 | 68 | 161 | 4.3 | 6.1 | 0.00 | 0.00 | 0.00 | 65 | 1014.0 |
| 20260505121029 | 67 | 224 | 3.5 | 7.0 | 0.00 | 0.00 | 0.00 | 67 | 1014.0 |
| 20260505120015 | 66 | 236 | 4.3 | 7.0 | 0.00 | 0.00 | 0.00 | 68 | 1013.9 |
| 20260505115020 | 65 | 213 | 3.5 | 5.2 | 0.00 | 0.00 | 0.00 | 68 | 1013.8 |
| 20260505114024 | 65 | 219 | 3.5 | 4.3 | 0.00 | 0.00 | 0.00 | 69 | 1013.7 |
| 20260505113029 | 64 | 210 | 2.6 | 5.2 | 0.00 | 0.00 | 0.00 | 70 | 1013.7 |
| 20260505112016 | 64 | 194 | 4.3 | 7.0 | 0.00 | 0.00 | 0.00 | 69 | 1013.5 |
| 20260505111042 | 64 | 189 | 3.5 | 5.2 | 0.00 | 0.00 | 0.00 | 69 | 1013.5 |
| 20260505102028 | 63 | 191 | 4.3 | 5.2 | 0.00 | 0.00 | 0.00 | 72 | 1013.2 |
| 20260505101032 | 62 | 220 | 4.3 | 5.2 | 0.00 | 0.00 | 0.00 | 73 | 1013.2 |
| 20260505100019 | 61 | 223 | 2.6 | 3.5 | 0.00 | 0.00 | 0.00 | 74 | 1013.0 |
| 20260505095043 | 62 | 227 | 2.6 | 4.3 | 0.00 | 0.00 | 0.00 | 73 | 1013.0 |
| 20260505094028 | 62 | 244 | 3.5 | 4.3 | 0.00 | 0.00 | 0.00 | 72 | 1013.0 |
| 20260505093027 | 63 | 219 | 2.6 | 4.3 | 0.00 | 0.00 | 0.00 | 70 | 1012.8 |
| 20260505092019 | 63 | 168 | 4.3 | 7.0 | 0.00 | 0.00 | 0.00 | 70 | 1013.0 |
| 20260505091044 | 63 | 214 | 3.5 | 5.2 | 0.00 | 0.00 | 0.00 | 70 | 1012.8 |
| 20260505090023 | 64 | 211 | 4.3 | 6.1 | 0.00 | 0.00 | 0.00 | 69 | 1012.7 |
| 20260505085037 | 64 | 200 | 4.3 | 7.8 | 0.00 | 0.00 | 0.00 | 69 | 1012.8 |
| 20260505084021 | 64 | 236 | 4.3 | 8.7 | 0.00 | 0.00 | 0.00 | 69 | 1012.8 |
| 20260505083019 | 0 | 0.0 | 0.0 | 0.00 | 0.00 | 0.00 | 1012.7 | ||
| 20260505082018 | 65 | 206 | 3.5 | 5.2 | 0.00 | 0.00 | 0.00 | 68 | 1012.7 |
| 20260505081140 | 65 | 216 | 3.5 | 6.1 | 0.00 | 0.00 | 0.00 | 67 | 1012.5 |
| 20260505080036 | 65 | 214 | 5.2 | 10.4 | 0.00 | 0.00 | 0.00 | 67 | 1012.5 |
| 20260505075026 | 65 | 224 | 4.3 | 7.0 | 0.00 | 0.00 | 0.00 | 66 | 1012.4 |
| 20260505074031 | 66 | 197 | 4.3 | 7.0 | 0.00 | 0.00 | 0.00 | 65 | 1012.4 |
| 20260505073019 | 66 | 230 | 4.3 | 7.0 | 0.00 | 0.00 | 0.00 | 65 | 1012.4 |
| 20260505072023 | 66 | 192 | 6.1 | 10.4 | 0.00 | 0.00 | 0.00 | 64 | 1012.3 |
| 20260505071028 | 66 | 228 | 5.2 | 8.7 | 0.00 | 0.00 | 0.00 | 64 | 1012.1 |
| 20260505070032 | 66 | 195 | 6.1 | 11.3 | 0.00 | 0.00 | 0.00 | 64 | 1012.2 |
| 20260505065020 | 66 | 197 | 5.2 | 7.8 | 0.00 | 0.00 | 0.00 | 64 | 1012.4 |
| 20260505064024 | 66 | 178 | 4.3 | 9.6 | 0.00 | 0.00 | 0.00 | 64 | 1012.4 |
| 20260505063028 | 66 | 203 | 5.2 | 7.8 | 0.00 | 0.00 | 0.00 | 66 | 1012.4 |
| 20260505062015 | 66 | 223 | 4.3 | 7.8 | 0.00 | 0.00 | 0.00 | 66 | 1012.5 |
| 20260505061020 | 66 | 223 | 4.3 | 6.1 | 0.00 | 0.00 | 0.00 | 66 | 1012.5 |
| 20260505060024 | 66 | 206 | 4.3 | 6.1 | 0.00 | 0.00 | 0.00 | 66 | 1012.6 |
| 20260505055029 | 65 | 197 | 3.5 | 7.8 | 0.00 | 0.00 | 0.00 | 67 | 1012.6 |
| 20260505054016 | 65 | 173 | 3.5 | 7.0 | 0.00 | 0.00 | 0.00 | 68 | 1012.7 |
| 20260505053022 | 65 | 211 | 4.3 | 8.7 | 0.00 | 0.00 | 0.00 | 67 | 1012.7 |
| 20260505052026 | 65 | 214 | 3.5 | 6.1 | 0.00 | 0.00 | 0.00 | 67 | 1012.6 |
| 20260505051052 | 66 | 235 | 2.6 | 5.2 | 0.00 | 0.00 | 0.00 | 66 | 1012.5 |
| 20260505041023 | 67 | 179 | 4.3 | 7.0 | 0.00 | 0.00 | 0.00 | 65 | 1012.2 |
| 20260505040028 | 66 | 185 | 4.3 | 8.7 | 0.00 | 0.00 | 0.00 | 67 | 1012.2 |
| 20260505035032 | 66 | 195 | 4.3 | 7.0 | 0.00 | 0.00 | 0.00 | 67 | 1012.2 |
| 20260505034019 | 66 | 187 | 4.3 | 7.0 | 0.00 | 0.00 | 0.00 | 67 | 1012.1 |
| 20260505033024 | 66 | 220 | 2.6 | 5.2 | 0.00 | 0.00 | 0.00 | 66 | 1012.2 |
| 20260505032029 | 66 | 194 | 3.5 | 7.0 | 0.00 | 0.00 | 0.00 | 66 | 1012.3 |
| 20260505031016 | 66 | 207 | 2.6 | 4.3 | 0.00 | 0.00 | 0.00 | 66 | 1012.4 |
| 20260505030020 | 66 | 224 | 2.6 | 5.2 | 0.00 | 0.00 | 0.00 | 66 | 1012.1 |
| 20260505025025 | 66 | 230 | 3.5 | 6.1 | 0.00 | 0.00 | 0.00 | 66 | 1012.2 |
| 20260505024050 | 66 | 191 | 1.7 | 3.5 | 0.00 | 0.00 | 0.00 | 65 | 1012.2 |
| 20260505023016 | 66 | 202 | 1.7 | 4.3 | 0.00 | 0.00 | 0.00 | 64 | 1012.1 |
| 20260505022021 | 67 | 210 | 3.5 | 4.3 | 0.00 | 0.00 | 0.00 | 64 | 1011.9 |
| 20260505021026 | 67 | 208 | 3.5 | 5.2 | 0.00 | 0.00 | 0.00 | 64 | 1011.8 |
| 20260505020032 | 67 | 166 | 4.3 | 6.1 | 0.00 | 0.00 | 0.00 | 63 | 1012.1 |
| 20260505015017 | 67 | 209 | 3.5 | 5.2 | 0.00 | 0.00 | 0.00 | 62 | 1012.1 |
| 20260505014023 | 68 | 212 | 3.5 | 6.1 | 0.00 | 0.00 | 0.00 | 59 | 1012.0 |
| 20260505013028 | 69 | 179 | 7.0 | 9.6 | 0.00 | 0.00 | 0.00 | 57 | 1011.8 |
| 20260505012026 | 69 | 186 | 6.1 | 8.7 | 0.00 | 0.00 | 0.00 | 56 | 1011.8 |
| 20260505011018 | 69 | 190 | 5.2 | 7.8 | 0.00 | 0.00 | 0.00 | 55 | 1011.5 |
| 20260505010023 | 0 | 0.0 | 0.0 | 0.00 | 0.00 | 0.00 | 1011.4 | ||
| 20260505005042 | 69 | 187 | 4.3 | 7.8 | 0.00 | 0.00 | 0.00 | 55 | 1011.3 |
| 20260505004041 | 69 | 185 | 4.3 | 7.8 | 0.00 | 0.00 | 0.00 | 55 | 1011.3 |
| 20260505003020 | 69 | 187 | 6.1 | 13.0 | 0.00 | 0.00 | 0.00 | 54 | 1011.1 |
| 20260505002018 | 69 | 196 | 5.2 | 9.6 | 0.00 | 0.00 | 0.00 | 54 | 1011.1 |
| 20260505001017 | 70 | 189 | 6.1 | 8.7 | 0.00 | 0.00 | 0.00 | 53 | 1010.9 |
| 20260505000016 | 70 | 171 | 7.8 | 10.4 | 0.00 | 0.00 | 0.00 | 52 | 1010.9 |
| 20260504235022 | 71 | 181 | 6.1 | 8.7 | 0.00 | 0.00 | 0.00 | 52 | 1011.0 |
| 20260504234026 | 71 | 193 | 4.3 | 6.1 | 0.00 | 0.00 | 0.00 | 52 | 1011.0 |
| 20260504233030 | 71 | 191 | 4.3 | 7.0 | 0.00 | 0.00 | 0.00 | 51 | 1010.9 |
| 20260504232017 | 73 | 177 | 5.2 | 9.6 | 0.00 | 0.00 | 0.00 | 50 | 1011.0 |
| 20260504231022 | 74 | 209 | 5.2 | 8.7 | 0.00 | 0.00 | 0.00 | 49 | 1010.8 |